This is the latest recevied weather packets stored in our database for station/object KJ4EBE. If no packets are shown the sender has not sent any weather packets the latest 10 day(s).
| Time | Temp. | Humidity | Pressure | Rain* | Wind** | Luminosity | Snow |
|---|---|---|---|---|---|---|---|
| 1777903429 | 19.44° C | 80% | 1013.7 hPa | 0 mm | - | 368 W/m² | - |
| 1777903125 | 18.33° C | 81% | 1013.6 hPa | 0 mm | - | 301 W/m² | - |
| 1777902822 | 18.33° C | 82% | 1013.6 hPa | 0 mm | - | 267 W/m² | - |
| 1777902519 | 18.33° C | 82% | 1013.7 hPa | 0 mm | - | 321 W/m² | - |
| 1777902216 | 18.33° C | 83% | 1013.7 hPa | 0 mm | - | 299 W/m² | - |
| 1777901914 | 17.22° C | 85% | 1013.7 hPa | 0 mm | - | 251 W/m² | - |
| 1777901612 | 16.67° C | 86% | 1013.8 hPa | 0 mm | - | 231 W/m² | - |
| 1777901309 | 16.67° C | 87% | 1013.6 hPa | 0 mm | - | 139 W/m² | - |
| 1777901006 | 16.11° C | 88% | 1013.6 hPa | 0 mm | - | 63 W/m² | - |
| 1777900704 | 15.56° C | 88% | 1013.7 hPa | 0 mm | - | 55 W/m² | - |
| 1777900400 | 15.56° C | 89% | 1013.8 hPa | 0 mm | - | 52 W/m² | - |
| 1777900097 | 15.56° C | 89% | 1013.7 hPa | 0 mm | - | 52 W/m² | - |
| 1777899794 | 15.56° C | 89% | 1013.7 hPa | 0 mm | - | 46 W/m² | - |
| 1777899490 | 15° C | 89% | 1013.7 hPa | 0 mm | - | 46 W/m² | - |
| 1777899189 | 15° C | 90% | 1013.6 hPa | 0 mm | - | 44 W/m² | - |
| 1777898886 | 15° C | 90% | 1013.3 hPa | 0 mm | - | 42 W/m² | - |
| 1777898583 | 14.44° C | 91% | 1013.4 hPa | 0 mm | - | 36 W/m² | - |
| 1777898280 | 14.44° C | 91% | 1013.4 hPa | 0 mm | - | 31 W/m² | - |
| 1777897977 | 14.44° C | 91% | 1013.6 hPa | 0 mm | - | 27 W/m² | - |
| 1777897673 | 14.44° C | 91% | 1013.7 hPa | 0 mm | - | 29 W/m² | - |
| 1777897369 | 14.44° C | 92% | 1013.6 hPa | 0 mm | - | 26 W/m² | - |
| 1777897065 | 13.89° C | 92% | 1013.4 hPa | 0 mm | - | 22 W/m² | - |
| 1777896762 | 13.89° C | 92% | 1013.4 hPa | 0 mm | - | 16 W/m² | - |
| 1777896460 | 13.89° C | 92% | 1013.4 hPa | 0 mm | - | 12 W/m² | - |
| 1777896157 | 13.89° C | 92% | 1013.3 hPa | 0 mm | - | 11 W/m² | - |
* Rain latest hour (hover to see other rain measurements)
** Current wind speed in m/s (hover to see current wind gust speed)